Showing default

KUIPER-00421, 68933

Orbit data source: Space-Track

KUIPER-00421, 68933 is a payload satellite owned by Kuiper Systems (US) in LEO that was launched on Thu, 30 Apr 2026 UTC via an ARIANE 64 launch vehicle from the French Guiana (FRGUI). Payload-class satellites include a variety of spacecraft equipped with specific instruments for various scientific and technological missions. These include communications satellites like Starlink; space stations such as the ISS; scientific satellites like the Hubble; Earth observation satellites from companies like Planet Labs, Umbra, and HawkEye 360; GPS; miniature CubeSats for education and research; and military/defense satellites.

Loading next visibility...
Identifier
68933, 2026-098Q
Orbit
LEO
Country
Flag of USUS
Related business
Manufacturer
Kuiper Systems
Mission
Operational Commercial Communications
Bus & Motor
KUIPER, Unknown motor
Mass
~490 kg wet, ~490 kg dry
Launch date (UTC)
2026-04-30 (2 months ago)
Launch vehicle
ARIANE 64
Launch site
French Guiana (FRGUI)
Object type
Payload
Rocket body
Debris
Shape & HBR
Box + 2 Pan, 3.4 m
Radar Cross Section
2.326 m², Large (>1 m²)

Expand to show TLE details & history
Last TLE update: 19 hours ago

TLE from 19 hours ago
0 KUIPER-00421
1 68933U 26098Q   26192.54844880  .00008756  00000-0  30840-3 0  9999
2 68933  51.8776 311.5072 0007482 216.8858 143.1612 15.30057233 11079
Epoch: 2026-07-11T13:09Z
TLE epoch observation values (Epoch: 2026-07-11T13:09:45.976Z)
Latitude
Longitude
-175.39445°
Altitude
480.508 km
Speed
7.624 km/s
True Right ascension
20h 46m 01s
True Declination
0° 00' 00"
Sunlit
Object was in full shadow at epoch
Visualization orbit readout
Latitude
Unknown
Longitude
Unknown
Altitude
Unknown
Speed
Unknown
Apparent Right ascension
Unknown
Apparent Declination
Unknown
Sunlit
N/A
Visualization observer readout
Local Sidereal Time
20:35:20
Azimuth
Unknown
Elevation
Unknown
Doppler factor
Unknown
Orbital elements
Apogee altitude
481.234 km
Perigee altitude
470.978 km
Semi-major axis
6,854.243 km
Eccentricity
0.00075
Inclination
51.8776°
RAAN
311.5072°
Arg. of periapsis
216.8858°
True anomaly
143.21257°
Mean anomaly
143.1612°
Eccentric anomaly
143.18689°
Mean motion
3.82476 °/min
Orbital period
94.12 mins
BSTAR
0.0003084
Loading maneuver chart data...
Computing Atmospheric mass density...
Loading historical data...
Loading historical data...
Loading historical data...
Loading historical data...
Loading historical data...
Loading historical data...
Loading historical data...

Documentation

Showing up to 5 results
|